| time (UTC) | temp F | wind direction | speed knots | gust knots | rain 1hr in | rain 24hr in | rain mn in | humidity % | barometer mb |
| 20260510021027 | 44 | 0.0 | 0.0 | 0.00 | 0.00 | 0.00 | 92 | 1017.0 | |
| 20260510020025 | 44 | 0.0 | 0.0 | 0.00 | 0.00 | 0.00 | 91 | 1017.1 | |
| 20260510015103 | 45 | 0.0 | 0.0 | 0.00 | 0.00 | 0.00 | 90 | 1017.2 | |
| 20260510014021 | 46 | 45 | 0.0 | 1.7 | 0.00 | 0.00 | 0.00 | 89 | 1017.3 |
| 20260510013019 | 46 | 45 | 0.9 | 1.7 | 0.00 | 0.00 | 0.00 | 91 | 1017.4 |
| 20260510012017 | 45 | 45 | 0.9 | 1.7 | 0.00 | 0.00 | 0.00 | 93 | 1017.4 |
| 20260510011115 | 44 | 23 | 0.0 | 1.7 | 0.00 | 0.00 | 0.00 | 92 | 1017.6 |
| 20260510010153 | 46 | 23 | 0.0 | 1.7 | 0.00 | 0.00 | 0.00 | 89 | 1017.6 |
| 20260510005111 | 47 | 45 | 0.0 | 1.7 | 0.00 | 0.00 | 0.00 | 88 | 1017.6 |
| 20260510004109 | 47 | 45 | 0.9 | 1.7 | 0.00 | 0.00 | 0.00 | 88 | 1017.6 |
| 20260510003106 | 47 | 45 | 0.0 | 1.7 | 0.00 | 0.00 | 0.00 | 89 | 1017.8 |
| 20260510002104 | 47 | 45 | 0.9 | 1.7 | 0.00 | 0.00 | 0.00 | 89 | 1018.0 |
| 20260510001103 | 47 | 45 | 0.9 | 1.7 | 0.00 | 0.00 | 0.00 | 89 | 1018.1 |
| 20260510000101 | 47 | 0.0 | 0.0 | 0.00 | 0.00 | 0.00 | 89 | 1018.5 | |
| 20260509235059 | 47 | 45 | 0.0 | 1.7 | 0.00 | 0.00 | 0.00 | 90 | 1018.3 |
| 20260509234116 | 47 | 68 | 0.0 | 1.7 | 0.00 | 0.00 | 0.00 | 92 | 1018.4 |
| 20260509233055 | 47 | 68 | 0.0 | 1.7 | 0.00 | 0.00 | 0.00 | 95 | 1018.6 |
| 20260509232052 | 46 | 68 | 0.0 | 1.7 | 0.00 | 0.00 | 0.00 | 95 | 1018.8 |
| 20260509231050 | 46 | 0.0 | 0.0 | 0.00 | 0.00 | 0.00 | 95 | 1018.8 | |
| 20260509230048 | 46 | 0.0 | 0.0 | 0.00 | 0.00 | 0.00 | 95 | 1018.9 | |
| 20260509225047 | 46 | 0.0 | 1.7 | 0.00 | 0.00 | 0.00 | 94 | 1019.1 | |
| 20260509224044 | 47 | 0.0 | 0.0 | 0.00 | 0.00 | 0.00 | 94 | 1019.0 | |
| 20260509223102 | 47 | 0.0 | 0.0 | 0.00 | 0.00 | 0.00 | 94 | 1019.0 | |
| 20260509222040 | 47 | 0.0 | 1.7 | 0.00 | 0.00 | 0.00 | 93 | 1019.0 | |
| 20260509221038 | 48 | 0.0 | 1.7 | 0.00 | 0.00 | 0.00 | 93 | 1019.3 | |
| 20260509220036 | 48 | 68 | 0.0 | 1.7 | 0.00 | 0.00 | 0.00 | 93 | 1019.3 |
| 20260509215114 | 48 | 0.0 | 1.7 | 0.00 | 0.00 | 0.00 | 93 | 1019.4 | |
| 20260509214032 | 48 | 0.0 | 0.0 | 0.00 | 0.00 | 0.00 | 93 | 1019.4 | |
| 20260509213030 | 48 | 0.0 | 0.0 | 0.00 | 0.00 | 0.00 | 93 | 1019.5 | |
| 20260509212028 | 49 | 0.0 | 0.0 | 0.00 | 0.00 | 0.00 | 92 | 1019.5 | |
| 20260509211026 | 49 | 68 | 0.0 | 1.7 | 0.00 | 0.00 | 0.00 | 92 | 1019.6 |
| 20260509210024 | 50 | 0.0 | 0.0 | 0.00 | 0.00 | 0.00 | 91 | 1019.5 | |
| 20260509205022 | 50 | 0.0 | 0.0 | 0.00 | 0.00 | 0.00 | 90 | 1019.7 | |
| 20260509204040 | 51 | 0.0 | 0.0 | 0.00 | 0.00 | 0.00 | 90 | 1019.8 | |
| 20260509203018 | 51 | 0.0 | 0.0 | 0.00 | 0.00 | 0.00 | 90 | 1019.8 | |
| 20260509202016 | 51 | 68 | 0.9 | 1.7 | 0.00 | 0.00 | 0.00 | 90 | 1019.9 |
| 20260509201114 | 51 | 0.0 | 0.0 | 0.00 | 0.00 | 0.00 | 90 | 1019.8 | |
| 20260509200112 | 51 | 0.0 | 0.0 | 0.00 | 0.00 | 0.00 | 88 | 1019.7 | |
| 20260509195150 | 51 | 0.0 | 0.0 | 0.00 | 0.00 | 0.00 | 86 | 1019.7 | |
| 20260509194148 | 52 | 0.0 | 0.0 | 0.00 | 0.00 | 0.00 | 84 | 1019.6 | |
| 20260509193106 | 53 | 0.0 | 0.0 | 0.00 | 0.00 | 0.00 | 82 | 1019.6 | |
| 20260509192104 | 54 | 0.0 | 1.7 | 0.00 | 0.00 | 0.00 | 80 | 1019.5 | |
| 20260509191102 | 55 | 0.0 | 0.0 | 0.00 | 0.00 | 0.00 | 78 | 1019.6 | |
| 20260509190100 | 56 | 0.0 | 0.0 | 0.00 | 0.00 | 0.00 | 77 | 1019.5 | |
| 20260509185058 | 56 | 0.0 | 0.0 | 0.00 | 0.00 | 0.00 | 75 | 1019.4 | |
| 20260509184056 | 57 | 0.0 | 0.0 | 0.00 | 0.00 | 0.00 | 72 | 1019.3 | |
| 20260509183054 | 59 | 68 | 0.0 | 1.7 | 0.00 | 0.00 | 0.00 | 70 | 1019.4 |
| 20260509182052 | 60 | 68 | 0.0 | 1.7 | 0.00 | 0.00 | 0.00 | 68 | 1019.5 |
| 20260509181050 | 60 | 0.0 | 1.7 | 0.00 | 0.00 | 0.00 | 68 | 1019.5 | |
| 20260509180048 | 62 | 68 | 0.0 | 1.7 | 0.00 | 0.00 | 0.00 | 68 | 1019.4 |
| 20260509175046 | 61 | 0.0 | 1.7 | 0.00 | 0.00 | 0.00 | 68 | 1019.5 | |
| 20260509174044 | 61 | 68 | 0.9 | 3.5 | 0.00 | 0.00 | 0.00 | 69 | 1019.6 |
| 20260509173042 | 61 | 74 | 0.9 | 3.5 | 0.00 | 0.00 | 0.00 | 69 | 1019.5 |
| 20260509172040 | 60 | 78 | 1.7 | 3.5 | 0.00 | 0.00 | 0.00 | 69 | 1019.5 |
| 20260509171038 | 61 | 74 | 0.9 | 3.5 | 0.00 | 0.00 | 0.00 | 69 | 1019.5 |
| 20260509170036 | 60 | 74 | 0.9 | 3.5 | 0.00 | 0.00 | 0.00 | 70 | 1019.5 |
| 20260509165034 | 60 | 68 | 1.7 | 3.5 | 0.00 | 0.00 | 0.00 | 69 | 1019.6 |
| 20260509164032 | 60 | 88 | 1.7 | 3.5 | 0.00 | 0.00 | 0.00 | 69 | 1019.6 |
| 20260509163030 | 60 | 71 | 1.7 | 3.5 | 0.00 | 0.00 | 0.00 | 69 | 1019.8 |
| 20260509162027 | 61 | 82 | 1.7 | 7.0 | 0.00 | 0.00 | 0.00 | 68 | 1019.7 |
| 20260509161026 | 61 | 74 | 1.7 | 5.2 | 0.00 | 0.00 | 0.00 | 68 | 1019.8 |
| 20260509160024 | 61 | 68 | 1.7 | 3.5 | 0.00 | 0.00 | 0.00 | 66 | 1019.8 |
| 20260509155022 | 61 | 68 | 0.9 | 3.5 | 0.00 | 0.00 | 0.00 | 67 | 1019.9 |
| 20260509154020 | 61 | 61 | 0.9 | 3.5 | 0.00 | 0.00 | 0.00 | 68 | 1020.1 |
| 20260509153018 | 61 | 69 | 1.7 | 3.5 | 0.00 | 0.00 | 0.00 | 66 | 1020.2 |
| 20260509152016 | 61 | 57 | 0.9 | 3.5 | 0.00 | 0.00 | 0.00 | 66 | 1020.2 |
| 20260509151114 | 61 | 68 | 0.0 | 1.7 | 0.00 | 0.00 | 0.00 | 66 | 1020.3 |
| 20260509150112 | 61 | 70 | 1.7 | 6.1 | 0.00 | 0.00 | 0.00 | 65 | 1020.3 |
| 20260509145150 | 62 | 79 | 1.7 | 7.8 | 0.00 | 0.00 | 0.00 | 64 | 1020.5 |
| 20260509144148 | 64 | 59 | 1.7 | 5.2 | 0.00 | 0.00 | 0.00 | 62 | 1020.6 |
| 20260509143106 | 64 | 68 | 1.7 | 5.2 | 0.00 | 0.00 | 0.00 | 62 | 1020.7 |
| 20260509142103 | 63 | 80 | 2.6 | 7.0 | 0.00 | 0.00 | 0.00 | 62 | 1020.7 |
| 20260509141102 | 63 | 67 | 2.6 | 7.8 | 0.00 | 0.00 | 0.00 | 62 | 1020.9 |
| 20260509140059 | 63 | 50 | 1.7 | 6.1 | 0.00 | 0.00 | 0.00 | 63 | 1021.1 |
| 20260509135058 | 61 | 45 | 1.7 | 5.2 | 0.00 | 0.00 | 0.00 | 66 | 1021.1 |
| 20260509134056 | 61 | 45 | 0.9 | 6.1 | 0.00 | 0.00 | 0.00 | 68 | 1021.2 |
| 20260509133113 | 60 | 45 | 0.9 | 3.5 | 0.00 | 0.00 | 0.00 | 68 | 1021.2 |
| 20260509132051 | 60 | 45 | 0.9 | 3.5 | 0.00 | 0.00 | 0.00 | 69 | 1021.3 |
| 20260509131049 | 60 | 45 | 1.7 | 5.2 | 0.00 | 0.00 | 0.00 | 67 | 1021.4 |
| 20260509130047 | 60 | 39 | 0.9 | 3.5 | 0.00 | 0.00 | 0.00 | 68 | 1021.5 |
| 20260509125045 | 60 | 52 | 1.7 | 5.2 | 0.00 | 0.00 | 0.00 | 67 | 1021.7 |
| 20260509124043 | 60 | 38 | 0.9 | 3.5 | 0.00 | 0.00 | 0.00 | 63 | 1021.7 |
| 20260509123041 | 59 | 45 | 0.9 | 3.5 | 0.00 | 0.00 | 0.00 | 63 | 1021.8 |
| 20260509122039 | 59 | 45 | 0.9 | 3.5 | 0.00 | 0.00 | 0.00 | 66 | 1022.0 |
| 20260509121037 | 59 | 45 | 0.9 | 6.1 | 0.00 | 0.00 | 0.00 | 67 | 1021.9 |
| 20260509120035 | 58 | 45 | 0.9 | 3.5 | 0.00 | 0.00 | 0.00 | 68 | 1022.0 |
| 20260509115033 | 59 | 36 | 0.9 | 3.5 | 0.00 | 0.00 | 0.00 | 69 | 1022.0 |
| 20260509114031 | 59 | 48 | 1.7 | 5.2 | 0.00 | 0.00 | 0.00 | 67 | 1022.2 |
| 20260509113029 | 60 | 46 | 0.9 | 5.2 | 0.00 | 0.00 | 0.00 | 68 | 1022.2 |
| 20260509112027 | 60 | 54 | 1.7 | 6.1 | 0.00 | 0.00 | 0.00 | 68 | 1022.3 |
| 20260509111025 | 60 | 26 | 1.7 | 3.5 | 0.00 | 0.00 | 0.00 | 68 | 1022.2 |
| 20260509110023 | 60 | 30 | 1.7 | 3.5 | 0.00 | 0.00 | 0.00 | 69 | 1022.3 |
| 20260509105021 | 59 | 37 | 1.7 | 5.2 | 0.00 | 0.00 | 0.00 | 70 | 1022.4 |
| 20260509104019 | 58 | 23 | 1.7 | 5.2 | 0.00 | 0.00 | 0.00 | 70 | 1022.4 |
| 20260509103037 | 58 | 23 | 1.7 | 3.5 | 0.00 | 0.00 | 0.00 | 71 | 1022.4 |
| 20260509102035 | 58 | 23 | 0.9 | 1.7 | 0.00 | 0.00 | 0.00 | 74 | 1022.5 |
| 20260509101113 | 58 | 23 | 0.9 | 3.5 | 0.00 | 0.00 | 0.00 | 74 | 1022.6 |
| 20260509100111 | 58 | 23 | 0.9 | 3.5 | 0.00 | 0.00 | 0.00 | 73 | 1022.4 |
| 20260509095109 | 58 | 26 | 1.7 | 3.5 | 0.00 | 0.00 | 0.00 | 74 | 1022.6 |
| 20260509094107 | 58 | 41 | 1.7 | 6.1 | 0.00 | 0.00 | 0.00 | 74 | 1022.6 |
| 20260509093105 | 58 | 20 | 1.7 | 3.5 | 0.00 | 0.00 | 0.00 | 75 | 1022.6 |
| 20260509092103 | 58 | 23 | 0.0 | 1.7 | 0.00 | 0.00 | 0.00 | 76 | 1022.6 |
| 20260509091101 | 57 | 23 | 0.9 | 1.7 | 0.00 | 0.00 | 0.00 | 77 | 1022.6 |
| 20260509090059 | 56 | 35 | 0.9 | 1.7 | 0.00 | 0.00 | 0.00 | 78 | 1022.6 |
| 20260509085117 | 56 | 23 | 0.9 | 1.7 | 0.00 | 0.00 | 0.00 | 81 | 1022.5 |
| 20260509084055 | 56 | 23 | 0.9 | 1.7 | 0.00 | 0.00 | 0.00 | 80 | 1022.6 |
| 20260509083053 | 55 | 31 | 1.7 | 6.1 | 0.00 | 0.00 | 0.00 | 80 | 1022.6 |
| 20260509082051 | 55 | 23 | 0.9 | 3.5 | 0.00 | 0.00 | 0.00 | 81 | 1022.6 |
| 20260509081049 | 56 | 23 | 0.9 | 3.5 | 0.00 | 0.00 | 0.00 | 79 | 1022.7 |
| 20260509080047 | 54 | 23 | 0.0 | 1.7 | 0.00 | 0.00 | 0.00 | 83 | 1022.6 |
| 20260509075045 | 54 | 23 | 0.0 | 1.7 | 0.00 | 0.00 | 0.00 | 83 | 1022.5 |
| 20260509074043 | 53 | 0.0 | 1.7 | 0.00 | 0.00 | 0.00 | 84 | 1022.5 | |
| 20260509073041 | 52 | 23 | 0.0 | 1.7 | 0.00 | 0.00 | 0.00 | 87 | 1022.5 |
| 20260509072039 | 52 | 23 | 0.0 | 1.7 | 0.00 | 0.00 | 0.00 | 88 | 1022.5 |
| 20260509071037 | 51 | 23 | 0.0 | 1.7 | 0.00 | 0.00 | 0.00 | 89 | 1022.3 |
| 20260509070035 | 51 | 0.0 | 0.0 | 0.00 | 0.00 | 0.00 | 91 | 1022.3 | |
| 20260509065033 | 50 | 23 | 0.0 | 1.7 | 0.00 | 0.00 | 0.00 | 91 | 1022.3 |
| 20260509064031 | 50 | 23 | 0.0 | 1.7 | 0.00 | 0.00 | 0.00 | 93 | 1022.2 |
| 20260509063029 | 50 | 0.0 | 0.0 | 0.00 | 0.00 | 0.00 | 94 | 1022.1 | |
| 20260509062026 | 49 | 0.0 | 0.0 | 0.00 | 0.00 | 0.00 | 94 | 1022.1 | |
| 20260509061025 | 49 | 0.0 | 0.0 | 0.00 | 0.00 | 0.00 | 95 | 1022.1 | |
| 20260509060023 | 49 | 0.0 | 0.0 | 0.00 | 0.00 | 0.00 | 96 | 1022.1 | |
| 20260509055041 | 48 | 0.0 | 1.7 | 0.00 | 0.00 | 0.00 | 96 | 1022.2 | |
| 20260509054019 | 48 | 23 | 0.0 | 1.7 | 0.00 | 0.00 | 0.00 | 97 | 1022.1 |
| 20260509053017 | 48 | 0.0 | 0.0 | 0.00 | 0.00 | 0.00 | 97 | 1022.1 | |
| 20260509052035 | 48 | 0.0 | 0.0 | 0.00 | 0.00 | 0.00 | 97 | 1021.9 | |
| 20260509051113 | 48 | 0.0 | 0.0 | 0.00 | 0.00 | 0.00 | 97 | 1022.0 | |
| 20260509050111 | 48 | 0.0 | 0.0 | 0.00 | 0.00 | 0.00 | 97 | 1021.8 | |
| 20260509045108 | 47 | 0.0 | 0.0 | 0.00 | 0.00 | 0.00 | 97 | 1021.8 | |
| 20260509044106 | 47 | 0.0 | 0.0 | 0.00 | 0.00 | 0.00 | 97 | 1021.8 | |
| 20260509043105 | 47 | 0.0 | 0.0 | 0.00 | 0.00 | 0.00 | 97 | 1021.7 | |
| 20260509042123 | 47 | 0.0 | 0.0 | 0.00 | 0.00 | 0.00 | 97 | 1021.7 | |
| 20260509041100 | 47 | 0.0 | 1.7 | 0.00 | 0.00 | 0.00 | 97 | 1021.8 | |
| 20260509040059 | 47 | 0.0 | 0.0 | 0.00 | 0.00 | 0.00 | 97 | 1021.8 | |
| 20260509035057 | 47 | 0.0 | 0.0 | 0.00 | 0.00 | 0.00 | 97 | 1021.8 | |
| 20260509034055 | 47 | 0.0 | 0.0 | 0.00 | 0.00 | 0.00 | 97 | 1021.8 | |
| 20260509033053 | 47 | 0.0 | 0.0 | 0.00 | 0.00 | 0.00 | 97 | 1021.9 | |
| 20260509032051 | 47 | 0.0 | 0.0 | 0.00 | 0.00 | 0.00 | 97 | 1022.1 | |
| 20260509031048 | 47 | 0.0 | 0.0 | 0.00 | 0.00 | 0.00 | 97 | 1022.1 | |
| 20260509030047 | 47 | 0.0 | 0.0 | 0.00 | 0.00 | 0.00 | 97 | 1022.1 | |
| 20260509025044 | 47 | 0.0 | 0.0 | 0.00 | 0.00 | 0.00 | 97 | 1022.3 | |
| 20260509024042 | 47 | 0.0 | 0.0 | 0.00 | 0.00 | 0.00 | 97 | 1022.2 | |
| 20260509023100 | 47 | 0.0 | 0.0 | 0.00 | 0.00 | 0.00 | 97 | 1022.3 | |
| 20260509022039 | 47 | 0.0 | 0.0 | 0.00 | 0.00 | 0.00 | 97 | 1022.3 |